{"data":{"norad_id":57609,"epoch":"2026-05-24T22:55:41.947104Z","epoch_age_seconds":69073,"freshness":"FRESH","line1":"1 57609U 23119H   26144.95534661 -.00001288  00000+0 -37319-4 0  9996","line2":"2 57609  43.0048  10.5758 0001138 244.4142 115.6592 15.27568368154750","mean_motion":15.27568368,"eccentricity":0.0001138,"inclination_deg":43.0048,"raan_deg":10.5758,"arg_perigee_deg":244.4142,"mean_anomaly_deg":115.6592,"bstar":-3.7319e-5,"rev_number":15475,"period_min":94.267466528215,"perigee_km":482.30311971181,"apogee_km":483.86473359472,"semimajor_km":6861.2209266533,"source":"CELESTRAK","updated_at":"2026-05-25T13:38:18.356038Z"}}